[[{"header":{"parameterUnit":"m.s-1","parameterCategory":1,"la1":30.2991,"la2":30.254,"lo1":-89.0895,"lo2":-89.0444,"dy":0.0017,"dx":0.0017,"nx":28,"ny":28,"refTime":"2024-10-05T09:00:00:Z","depth":0,"parameterNumber":2,"parameterNumberName":"U-component_of_WINDS"},"data":[0,0,0,0,0,0,0,0,0,0,0,0,0,0,0,0,0,0,0,0,0,0,0,0,0,0,0,0,0,0,0,0,0,0,0,0,0,0,0,0,0,0,0,0,0,0,0,0,0,0,0,0,0,0,0,0,0,0,-4.0633,-4.0634,0,-4.0736,-4.0738,-4.0739,-4.063,-4.0625,-4.0621,-4.0617,-4.0729,-4.0736,-4.0742,0,0,0,0,0,0,0,0,0,0,0,0,0,-4.0344,-4.035,-4.0632,-4.0634,-4.0635,-4.0736,-4.0738,-4.0739,-4.063,-4.0625,-4.062,-4.0615,-4.0727,-4.0735,-4.0743,0,0,0,0,0,0,0,0,0,0,0,0,0,-4.0461,-4.0352,-4.0632,-4.0593,-4.059,-4.0736,-4.0738,-4.0739,-4.0631,-4.0625,-4.0619,-4.0613,-4.0724,-4.0734,-4.0744,-4.0935,0,0,-4.0776,-4.078,0,0,0,0,0,0,0,0,-4.0455,-4.0472,-4.0597,-4.0596,-4.0593,-4.0663,-4.0677,-4.0805,-4.0633,-4.0616,-4.0617,-4.061,-4.0713,-4.0723,-4.0757,-4.094,-4.0945,-4.0777,-4.0783,-4.0787,-4.079,0,0,0,0,0,0,0,-4.0447,-4.0467,-4.0674,-4.0599,-4.0597,-4.0572,-4.0581,-4.0701,-4.0699,-4.0617,-4.0609,-4.0623,-4.071,-4.0747,-4.0759,-4.0947,-4.0776,-4.0786,-4.0792,-4.0796,-4.1294,-4.1301,0,0,0,0,0,0,-4.0442,-4.0461,-4.067,-4.0677,-4.0507,-4.0582,-4.0593,-4.0647,-4.0697,-4.0698,-4.0628,-4.0617,-4.0733,-4.0747,-4.0762,-4.0991,-4.0787,-4.0797,-4.0803,-4.1287,-4.1295,-4.1303,0,0,0,0,0,0,-4.0437,-4.0462,-4.0666,-4.0567,-4.0591,-4.0594,-4.0656,-4.0653,-4.069,-4.0705,-4.0705,-4.0666,-4.0728,-4.0748,-4.0893,-4.0993,-4.0802,-4.0811,-4.1279,-4.129,-4.1299,-4.1449,0,0,0,0,0,0,-4.0429,-4.0461,-4.0532,-4.0569,-4.0596,-4.0794,-4.0662,-4.0659,-4.0707,-4.0694,-4.0741,-4.0743,-4.0725,-4.0878,-4.0903,-4.1004,-4.0819,-4.127,-4.1283,-4.1296,-4.1435,-4.1463,-4.1487,0,0,0,0,0,-4.0419,-4.0571,-4.0537,-4.0562,-4.0686,-4.08,-4.0816,-4.0791,-4.0716,-4.0789,-4.0799,-4.0741,-4.0977,-4.0894,-4.0921,-4.1027,-4.1263,-4.128,-4.1295,-4.1424,-4.1458,-4.1487,0,0,0,0,0,0,-4.0548,-4.0575,-4.0537,-4.0705,-4.0751,-4.0781,-4.0873,-4.0828,-4.0897,-4.0882,-4.0849,-4.0861,-4.1015,-4.1035,-4.0941,-4.1215,-4.1108,-4.1131,-4.1197,-4.123,-4.1255,-4.1249,-4.0828,0,0,0,0,0,-4.0595,-4.0684,-4.0704,-4.0851,-4.0875,-4.087,-4.0919,-4.0896,-4.0942,-4.0962,-4.0982,-4.1031,-4.1116,-4.1174,-4.1253,-4.1436,-4.1447,-4.1523,-4.1549,-4.157,-4.1591,-4.1691,-4.1726,-4.1355,-4.1355,-4.1354,0,0,-4.0696,-4.0721,-4.078,-4.0877,-4.091,-4.1005,-4.0887,-4.0992,-4.1063,-4.0978,-4.1117,-4.1134,-4.1186,-4.1352,-4.1426,-4.1373,-4.1695,-4.159,-4.1607,-4.1616,-4.1711,-4.1746,-4.1778,-4.1365,-4.1363,-4.1362,0,0,-4.0927,-4.0954,-4.108,-4.1115,-4.1165,-4.1161,-4.1191,-4.1229,-4.1236,-4.1374,-4.1313,-4.1397,-4.1544,-4.1584,-4.1624,-4.1871,-4.1822,-4.1898,-4.2035,-4.2134,-4.2163,-4.2189,-4.228,-4.2312,-4.1917,-4.1918,-4.1918,0,-4.1046,-4.1185,-4.1151,-4.1261,-4.1307,-4.1232,-4.136,-4.1396,-4.1471,-4.1505,-4.1444,-4.1627,-4.1657,-4.1833,-4.1893,-4.1927,-4.1962,-4.1894,-4.2161,-4.2187,-4.2211,-4.2297,-4.2331,-4.1927,-4.1926,-4.1925,-4.1924,0,-4.1329,-4.1427,-4.1523,-4.1595,-4.1651,-4.177,-4.1756,-4.1817,-4.1788,-4.1791,-4.1934,-4.1967,-4.2052,-4.2091,-4.2065,-4.2264,-4.223,-4.2166,-4.2059,-4.2256,-4.2336,-4.2369,-4.194,-4.1936,-4.1934,-4.1932,0,0,-4.1647,-4.1699,-4.1735,-4.1768,-4.1817,-4.1893,-4.2009,-4.209,-4.2145,-4.2198,-4.2296,-4.2422,-4.2363,-4.2409,-4.2386,-4.2472,-4.2668,-4.2398,-4.2398,-4.2449,-4.2893,-4.2943,-4.2981,-4.2634,-4.2641,-4.2645,-4.2889,0,-4.1882,-4.2081,-4.2055,-4.2247,-4.2338,-4.2268,-4.2369,-4.2412,-4.2417,-4.2496,-4.2502,-4.2593,-4.2507,-4.2534,-4.2616,-4.2627,-4.2758,-4.2609,-4.2729,-4.2733,-4.2721,-4.3023,-4.3076,-4.3305,-4.292,-4.2925,-4.2929,0,-4.2183,-4.2246,-4.2447,-4.2484,-4.2521,-4.2612,-4.2686,-4.2761,-4.2809,-4.2806,-4.2857,-4.2819,-4.2937,-4.2825,-4.2989,-4.2889,-4.2936,-4.2949,-4.2957,-4.297,-4.2845,-4.3047,-4.3377,-4.3412,-4.2978,-4.2974,-4.2971,0,-4.2398,-4.2533,-4.2671,-4.2701,-4.2746,-4.2813,-4.2835,-4.2875,-4.2927,-4.2991,-4.3025,-4.3103,-4.3146,-4.3208,-4.3193,-4.3113,-4.3362,-4.3248,-4.3366,-4.3367,-4.3424,-4.3421,-4.3769,-4.345,-4.3449,-4.3449,-4.3448,0,-4.2664,-4.2791,-4.2769,-4.2855,-4.2995,-4.2963,-4.3104,-4.3117,-4.3154,-4.3242,-4.3186,-4.3271,-4.3244,-4.3328,-4.3316,-4.3455,-4.3474,-4.3478,-4.3474,-4.3485,-4.3485,-4.3518,-4.3503,-4.3458,-4.3456,-4.3454,-4.3452,0,-4.293,-4.2919,-4.3066,-4.3096,-4.3107,-4.3209,-4.3236,-4.3318,-4.3317,-4.343,-4.3455,-4.3456,-4.3552,-4.3542,-4.3649,-4.3642,-4.3815,-4.3791,-4.3799,-4.3795,-4.3914,-4.3904,-4.4298,-4.4349,-4.3994,-4.3997,-4.4,0,-4.3102,-4.3198,-4.3238,-4.3292,-4.3319,-4.3407,-4.3459,-4.3431,-4.3488,-4.3549,-4.3624,-4.3714,-4.3785,-4.3941,-4.3953,-4.4036,-4.4015,-4.4147,-4.4027,-4.4035,-4.402,-4.4016,-4.4027,-4.4172,-4.4176,-4.4179,-4.4181,0,-4.341,-4.34,-4.3476,-4.3551,-4.3614,-4.3672,-4.3724,-4.3772,-4.375,-4.3816,-4.3913,-4.3968,-4.4077,-4.4168,-4.4246,-4.4271,-4.4225,-4.4219,-4.4251,-4.4265,-4.4267,-4.427,-4.3867,-4.4211,-4.4208,-4.4206,-4.4204,-4.4203,-4.3636,-4.3718,-4.376,-4.3847,-4.3882,-4.3933,-4.4011,-4.402,-4.41,-4.4186,-4.4164,-4.4274,-4.432,-4.4419,-4.4452,-4.4539,-4.4491,-4.4537,-4.4549,-4.4562,-4.4577,-4.425,-4.4552,-4.4551,-4.4551,-4.455,-4.4549,0,-4.3943,-4.3966,-4.4046,-4.412,-4.4189,-4.4136,-4.4191,-4.4253,-4.435,-4.4395,-4.4466,-4.4578,-4.4666,-4.4684,-4.4769,-4.4835,-4.4816,-4.4859,-4.4855,-4.4862,-4.4613,-4.4578,-4.4873,-4.4873,-4.4873,-4.4873,-4.4872,-4.4872,-4.4112,-4.4249,-4.4244,-4.4399,-4.4421,-4.4527,-4.4563,-4.461,-4.4646,-4.4773,-4.4846,-4.4856,-4.4892,-4.4978,-4.5058,-4.5061,-4.5096,-4.5148,-4.5144,-4.4912,-4.4879,-4.4849,-4.4816,-4.5155,-4.5156,-4.5385,-4.5388,-4.5389]},{"header":{"parameterUnit":"m.s-1","parameterCategory":1,"la1":30.2991,"la2":30.254,"lo1":-89.0895,"lo2":-89.0444,"dy":0.0017,"dx":0.0017,"nx":28,"ny":28,"refTime":"2024-10-05T09:00:00:Z","depth":0,"parameterNumber":3,"parameterNumberName":"V-component_of_WINDS"},"data":[0,0,0,0,0,0,0,0,0,0,0,0,0,0,0,0,0,0,0,0,0,0,0,0,0,0,0,0,0,0,0,0,0,0,0,0,0,0,0,0,0,0,0,0,0,0,0,0,0,0,0,0,0,0,0,0,0,0,-3.3791,-3.3791,0,-3.3861,-3.3862,-3.3863,-3.3813,-3.3811,-3.3809,-3.3807,-3.3878,-3.3882,-3.3886,0,0,0,0,0,0,0,0,0,0,0,0,0,-3.361,-3.3614,-3.3791,-3.3792,-3.3792,-3.3861,-3.3862,-3.3863,-3.3814,-3.3811,-3.3808,-3.3806,-3.3876,-3.3881,-3.3886,0,0,0,0,0,0,0,0,0,0,0,0,0,-3.3686,-3.3615,-3.379,-3.3776,-3.3775,-3.3861,-3.3862,-3.3863,-3.3814,-3.3811,-3.3807,-3.3804,-3.3875,-3.3881,-3.3887,-3.399,0,0,-3.3905,-3.3907,0,0,0,0,0,0,0,0,-3.3681,-3.3692,-3.3777,-3.3777,-3.3777,-3.3825,-3.3825,-3.3906,-3.3815,-3.3799,-3.3807,-3.3803,-3.3863,-3.387,-3.389,-3.3993,-3.3996,-3.3905,-3.3909,-3.3911,-3.3913,0,0,0,0,0,0,0,-3.3676,-3.3689,-3.3819,-3.3778,-3.3778,-3.3765,-3.3772,-3.384,-3.3849,-3.38,-3.3797,-3.3806,-3.3862,-3.3885,-3.3891,-3.3997,-3.3905,-3.391,-3.3914,-3.3916,-3.4189,-3.4192,0,0,0,0,0,0,-3.3673,-3.3685,-3.3816,-3.3821,-3.372,-3.3771,-3.3779,-3.3813,-3.3848,-3.385,-3.3809,-3.3804,-3.3876,-3.3885,-3.3894,-3.4017,-3.3911,-3.3917,-3.392,-3.4185,-3.4189,-3.4193,0,0,0,0,0,0,-3.3669,-3.3685,-3.3813,-3.3752,-3.3767,-3.3778,-3.3816,-3.3816,-3.3838,-3.3854,-3.3856,-3.3831,-3.3874,-3.3885,-3.3966,-3.4019,-3.392,-3.3925,-3.4181,-3.4186,-3.4191,-3.4265,0,0,0,0,0,0,-3.3664,-3.3684,-3.3724,-3.3753,-3.3771,-3.3886,-3.382,-3.382,-3.3849,-3.3843,-3.3875,-3.3877,-3.3872,-3.3958,-3.3972,-3.4025,-3.393,-3.4176,-3.4183,-3.419,-3.4258,-3.4273,-3.4285,0,0,0,0,0,-3.3658,-3.3742,-3.3726,-3.3742,-3.3821,-3.3889,-3.3899,-3.3892,-3.3854,-3.3894,-3.3904,-3.3876,-3.4011,-3.3967,-3.3983,-3.4038,-3.4173,-3.4181,-3.4189,-3.4252,-3.427,-3.4285,0,0,0,0,0,0,-3.3718,-3.3745,-3.3728,-3.3824,-3.3855,-3.3881,-3.3931,-3.3911,-3.3952,-3.3945,-3.3933,-3.3941,-3.4026,-3.404,-3.399,-3.414,-3.4086,-3.4097,-3.4128,-3.4145,-3.4158,-3.4153,-3.3935,0,0,0,0,0,-3.3742,-3.3796,-3.3816,-3.3899,-3.3915,-3.3921,-3.395,-3.3942,-3.3972,-3.3985,-3.4001,-3.4032,-3.4081,-3.4113,-3.4159,-3.426,-3.4266,-3.4306,-3.4319,-3.433,-3.4341,-3.4394,-3.4412,-3.422,-3.422,-3.422,0,0,-3.3793,-3.3815,-3.3849,-3.3912,-3.3934,-3.3989,-3.3932,-3.3992,-3.4033,-3.3994,-3.4072,-3.4085,-3.4118,-3.4209,-3.425,-3.4223,-3.4395,-3.434,-3.4349,-3.4354,-3.4405,-3.4423,-3.4439,-3.4226,-3.4225,-3.4224,0,0,-3.3915,-3.3936,-3.4008,-3.4031,-3.4067,-3.4069,-3.4086,-3.4115,-3.4122,-3.42,-3.4172,-3.422,-3.4305,-3.433,-3.4353,-3.4483,-3.446,-3.4498,-3.4569,-3.4621,-3.4637,-3.465,-3.4697,-3.4714,-3.4509,-3.4509,-3.4509,0,-3.3974,-3.4056,-3.4047,-3.411,-3.4138,-3.4105,-3.4177,-3.42,-3.4248,-3.4268,-3.4237,-3.4343,-3.4363,-3.446,-3.4492,-3.4512,-3.4531,-3.4495,-3.4635,-3.4649,-3.4661,-3.4705,-3.4723,-3.4513,-3.4513,-3.4512,-3.4512,0,-3.4127,-3.4185,-3.4238,-3.4286,-3.432,-3.4387,-3.4387,-3.4422,-3.4411,-3.4417,-3.4496,-3.4519,-3.4569,-3.4591,-3.458,-3.4686,-3.4668,-3.4637,-3.4582,-3.4684,-3.4725,-3.4742,-3.452,-3.4518,-3.4517,-3.4516,0,0,-3.4289,-3.4331,-3.4351,-3.4372,-3.4408,-3.4452,-3.4517,-3.4566,-3.4597,-3.4631,-3.4685,-3.4757,-3.4728,-3.4755,-3.4746,-3.4793,-3.4894,-3.4755,-3.4756,-3.4781,-3.5013,-3.5037,-3.5057,-3.4878,-3.4882,-3.4884,-3.501,0,-3.4413,-3.4528,-3.4521,-3.4628,-3.4681,-3.465,-3.4707,-3.4734,-3.4741,-3.4787,-3.4794,-3.4845,-3.4803,-3.4819,-3.4863,-3.4873,-3.4941,-3.4863,-3.4929,-3.4931,-3.4923,-3.5078,-3.5104,-3.5222,-3.5026,-3.5029,-3.5031,0,-3.4573,-3.4613,-3.4726,-3.4754,-3.4776,-3.4827,-3.4871,-3.4915,-3.4946,-3.4947,-3.4977,-3.4961,-3.5026,-3.4969,-3.5058,-3.5006,-3.5032,-3.5041,-3.5045,-3.5052,-3.4988,-3.509,-3.526,-3.5278,-3.5056,-3.5054,-3.5052,0,-3.4681,-3.4763,-3.4841,-3.486,-3.4894,-3.4931,-3.4947,-3.4974,-3.5004,-3.5042,-3.5061,-3.5107,-3.5132,-3.5167,-3.5163,-3.5122,-3.5254,-3.5197,-3.5258,-3.5258,-3.5288,-3.5286,-3.5465,-3.5303,-3.5303,-3.5303,-3.5302,0,-3.482,-3.4891,-3.489,-3.4938,-3.5016,-3.5006,-3.5083,-3.5095,-3.5119,-3.5169,-3.5144,-3.5191,-3.5182,-3.5229,-3.5226,-3.5301,-3.5312,-3.5315,-3.5314,-3.5318,-3.5318,-3.5336,-3.5328,-3.5307,-3.5306,-3.5305,-3.5305,0,-3.4955,-3.4957,-3.504,-3.5065,-3.5073,-3.513,-3.5151,-3.5196,-3.52,-3.5263,-3.5277,-3.5284,-3.5338,-3.5337,-3.5398,-3.5396,-3.5488,-3.5476,-3.5478,-3.5476,-3.5537,-3.5532,-3.5734,-3.5761,-3.5581,-3.5583,-3.5584,0,-3.5044,-3.5098,-3.5129,-3.516,-3.5179,-3.523,-3.526,-3.5252,-3.5285,-3.5324,-3.5364,-3.5415,-3.5456,-3.5543,-3.5553,-3.5599,-3.5589,-3.5657,-3.5596,-3.5599,-3.5591,-3.5588,-3.5594,-3.5669,-3.5671,-3.5673,-3.5674,0,-3.5203,-3.5201,-3.5246,-3.5292,-3.533,-3.5365,-3.5398,-3.5425,-3.542,-3.5458,-3.5513,-3.5544,-3.5606,-3.5658,-3.5702,-3.5717,-3.5696,-3.5693,-3.571,-3.5715,-3.5714,-3.5716,-3.5511,-3.5689,-3.5687,-3.5686,-3.5686,-3.5685,-3.5318,-3.5364,-3.5393,-3.5444,-3.5468,-3.5499,-3.5543,-3.5553,-3.5598,-3.5649,-3.5641,-3.5702,-3.573,-3.5788,-3.5807,-3.5854,-3.583,-3.5854,-3.586,-3.5867,-3.5874,-3.5706,-3.5862,-3.5861,-3.5861,-3.5861,-3.586,0,-3.5476,-3.5493,-3.554,-3.5587,-3.5627,-3.5602,-3.5637,-3.5672,-3.5727,-3.5755,-3.5795,-3.5858,-3.5907,-3.5921,-3.5968,-3.6004,-3.5995,-3.6016,-3.6014,-3.6018,-3.5892,-3.5873,-3.6023,-3.6023,-3.6023,-3.6023,-3.6023,-3.6023,-3.5563,-3.564,-3.5641,-3.5729,-3.5746,-3.5806,-3.5828,-3.5856,-3.5879,-3.595,-3.5991,-3.5999,-3.6022,-3.6071,-3.6115,-3.6117,-3.6136,-3.6162,-3.6161,-3.6043,-3.6027,-3.6011,-3.5994,-3.6166,-3.6166,-3.6283,-3.6284,-3.6285]}]]